Regional Weather Roundup
Issued by NWS

Home | Current Version | Previous Version | Graphics & Text | Print | Product List | Glossary On
Versions: 1 2 3 4 5 6 7 8 9 10 11 12 13 14 15 16 17 18 19 20 21 22 23 24 25 26 27 28 29 30 31 32 33 34 35 36 37 38 39 40 41 42 43 44 45 46 47 48 49 50
000
ASUS45 KSLC 211410
RWRUT

UTAH REGIONAL WEATHER ROUNDUP
NATIONAL WEATHER SERVICE SALT LAKE CITY UT
800 AM MDT MON JUL 21 2014

UTZ001>011-023>025-211500-

NORTHERN UTAH

CITY           SKY/WX    TMP DP  RH WIND       PRES   REMARKS
HILL AFB       SUNNY     70  48  46 E9        30.11R
LOGAN          SUNNY     66  54  65 CALM      30.08R
OGDEN          SUNNY     71  47  42 S6        30.08R
PROVO AIRPORT  MOSUNNY   64  46  52 CALM      30.15R
SALT LAKE CITY MOSUNNY   79  38  22 S14       30.05R
VERNAL         SUNNY     66  32  28 CALM      30.19R
WENDOVER       SUNNY     68  54  60 CALM      30.07R
HEBER CITY     SUNNY     54  48  82 N3        30.21R
WEST JORDAN    SUNNY     77  50  38 SE15G21   30.10R

$$

UTZ012>022-026-027-211500-

SOUTHERN UTAH

CITY           SKY/WX    TMP DP  RH WIND       PRES   REMARKS
BRYCE CANYON   SUNNY     52  35  52 CALM      30.39R
CEDAR CITY     SUNNY     70  37  29 SE6       30.23R
MILFORD        SUNNY     71  33  24 S12       30.18R
MOAB/CYNLANDS  SUNNY     75  38  26 CALM      30.12R
PRICE          SUNNY     69  36  29 CALM      30.22R
ST GEORGE      SUNNY     79  39  24 E7        30.08R
KANAB            N/A     63  36  36 N3        30.26R

$$

REGIONAL REPORTS     COLORADO/ARIZONA

CITY           SKY/WX    TMP DP  RH WIND       PRES   REMARKS
CRAIG, CO      SUNNY     53  50  89 W5        30.25S
GRAND JUNCTION SUNNY     74  45  35 SE10      30.16R
RIFLE          SUNNY     65  47  52 E3        30.24R
MONTROSE       MOSUNNY   66  44  45 S6        30.26R
CORTEZ         SUNNY     62  42  47 CALM      30.29R
PAGE, AZ       SUNNY     79  33  19 CALM      30.17R
GRAND CANYON   SUNNY     56  38  50 CALM      30.36R
KINGMAN        SUNNY     73  40  30 SE13      30.12R
FLAGSTAFF      MOSUNNY   58  38  47 CALM      30.39R

$$

REGIONAL REPORTS    NEVADA/IDAHO/WYOMING

CITY           SKY/WX    TMP DP  RH WIND       PRES   REMARKS
LAS VEGAS, NV  MOSUNNY   83  45  26 S13       29.95R
ELY            SUNNY     65  32  29 S13       30.23R
ELKO           SUNNY     60  52  74 CALM      30.15R
POCATELLO, ID  SUNNY     75  48  38 SW8       30.08R
BURLEY         PTSUNNY   68  53  58 SW7       30.06R
EVANSTON, WY   SUNNY     59  46  62 S6        30.26R
ROCK SPRINGS   SUNNY     63  42  46 CALM      30.24R

$$



USA.gov is the U.S. government's official web portal to all federal, state and local government web resources and services.